STARLINK-2195, 47772

Orbit data source: Space-Track

STARLINK-2195, 47772 is a payload satellite owned by SpaceX/Seattle (US) in LEO that was launched on Thu, 04 Mar 2021 UTC via an FALCON 9 launch vehicle from the Air Force Eastern Test Range (AFETR). Payload-class satellites include a variety of spacecraft equipped with specific instruments for various scientific and technological missions. These include communications satellites like Starlink; space stations such as the ISS; scientific satellites like the Hubble; Earth observation satellites from companies like Planet Labs, Umbra, and HawkEye 360; GPS; miniature CubeSats for education and research; and military/defense satellites.

Loading next visibility...
Identifier
47772, 2021-017BC
Orbit
LEO
Country
Flag of USUS
Related business
Manufacturer
SpaceX/Seattle
Mission
Operational Commercial Communications
Bus & Motor
STARLINK, Unknown motor
Mass
260 kg wet, ~248 kg dry
Launch date (UTC)
2021-03-04 (5 years ago)
Launch vehicle
FALCON 9
Launch site
Air Force Eastern Test Range (AFETR)
Object type
Payload
Rocket body
Debris
Shape & HBR
Box + 1 Pan, 10.1 m
Radar Cross Section
13.562 m², Large (>1 m²)

Expand to show TLE details & history
Last TLE update: 10 hours ago

TLE from 10 hours ago
0 STARLINK-2195
1 47772U 21017BC  26236.17919219  .00000908  00000-0  41036-4 0  9991
2 47772  53.1598 157.8897 0001278  88.1054 272.0093 15.31693659303321
Epoch: 2026-08-24T04:18Z
TLE epoch observation values (Epoch: 2026-08-24T04:18:02.205Z)
Latitude
-0.00007°
Longitude
120.91585°
Altitude
471.629 km
Speed
7.631 km/s
True Right ascension
10h 31m 33s
True Declination
0° 00' 00"
Sunlit
Object was in daylight at epoch
Visualization orbit readout
Latitude
Unknown
Longitude
Unknown
Altitude
Unknown
Speed
Unknown
Apparent Right ascension
Unknown
Apparent Declination
Unknown
Sunlit
N/A
Visualization observer readout
Local Sidereal Time
05:49:00
Azimuth
Unknown
Elevation
Unknown
Doppler factor
Unknown
Orbital elements
Apogee altitude
471.891 km
Perigee altitude
470.14 km
Semi-major axis
6,849.153 km
Eccentricity
0.00013
Inclination
53.1598°
RAAN
157.8897°
Arg. of periapsis
88.1054°
True anomaly
271.99466°
Mean anomaly
272.0093°
Eccentric anomaly
272.00198°
Mean motion
3.82902 °/min
Orbital period
94.02 mins
BSTAR
0.000041036
Loading maneuver chart data...
Computing Atmospheric mass density...

Documentation

Showing up to 5 results
|